Location: Los Ranchitos
(37.9930°N, 122.5425°W)
Time: 02:29:37
(UTC+00:00)

Ariane Rocket - Pass Details

Date: 21 September 2020
Orbit: 760 x 769 km, 98.7° (Epoch: 27 October)

Event Time Altitude Azimuth Distance (km) Brightness Sun altitude
Exits shadow 02:56:54 13° 110° (ESE) 2,120 4.6 -10.2°
Maximum altitude 03:00:08 22° 66° (ENE) 1,620 4.2 -10.8°
Drops below altitude 10° 03:03:58 10° 16° (NNE) 2,309 5.4 -11.6°
Sets 03:06:43 0° 2° (N) 3,242 6.4 -12.1°
